Showing default

TIANPING 3A-01, 61614

Orbit data source: Space-Track

TIANPING 3A-01, 61614 is a payload satellite owned by ZJUNI-SAT (CN) in SSO that was launched on Tue, 22 Oct 2024 UTC via a CHANG ZHENG 6 launch vehicle from the Taiyaun Space Center, China (TSC). Payload-class satellites include a variety of spacecraft equipped with specific instruments for various scientific and technological missions. These include communications satellites like Starlink; space stations such as the ISS; scientific satellites like the Hubble; Earth observation satellites from companies like Planet Labs, Umbra, and HawkEye 360; GPS; miniature CubeSats for education and research; and military/defense satellites.

Loading next visibility...
Identifier
61614, 2024-189A
Orbit
SSO
Country
Flag of CNCN / PRC
Related business
Manufacturer
ZJUNI-SAT
Mission
Operational Defense Calibration
Bus & Motor
TP-3, Unknown motor
Mass
200 kg wet, ~200 kg dry
Launch date (UTC)
2024-10-22 (2 years ago)
Launch vehicle
CHANG ZHENG 6
Launch site
Taiyaun Space Center, China (TSC)
Object type
Payload
Rocket body
Debris
Shape & HBR
Box, 0.3 m
Radar Cross Section
0.135 m², Large (>1 m²)

Expand to show TLE details & history
Last TLE update: 9 hours ago

TLE from 9 hours ago
0 TIANPING 3A-01
1 61614U 24189A   26122.91535678  .00003470  00000-0  27674-3 0  9992
2 61614  97.5248 144.5716 0002943  90.5369 269.6192 15.00941541 83694
Epoch: 2026-05-02T21:58Z
TLE epoch observation values (Epoch: 2026-05-02T21:58:06.825Z)
Latitude
-0.00011°
Longitude
-45.78323°
Altitude
567.067 km
Speed
7.578 km/s
True Right ascension
09h 38m 17s
True Declination
0° 00' 00"
Sunlit
Object was in daylight at epoch
Visualization orbit readout
Latitude
Unknown
Longitude
Unknown
Altitude
Unknown
Speed
Unknown
Apparent Right ascension
Unknown
Apparent Declination
Unknown
Sunlit
N/A
Visualization observer readout
Local Sidereal Time
14:54:07
Azimuth
Unknown
Elevation
Unknown
Doppler factor
Unknown
Orbital elements
Apogee altitude
563.03 km
Perigee altitude
558.946 km
Semi-major axis
6,939.125 km
Eccentricity
0.00029
Inclination
97.5248°
RAAN
144.5716°
Arg. of periapsis
90.5369°
True anomaly
269.58548°
Mean anomaly
269.6192°
Eccentric anomaly
269.60234°
Mean motion
3.75479 °/min
Orbital period
95.88 mins
BSTAR
0.00027674
Loading maneuver chart data...
Computing Atmospheric mass density...
Loading historical data...
Loading historical data...
Loading historical data...
Loading historical data...
Loading historical data...
Loading historical data...
Loading historical data...
Other satellites on launch #189 in the year 2024 (2024-10-22 UTC)

Documentation

Showing up to 5 results
|